When you browse on this site, cookies collect data to enhance your experience and personalize the content and advertising you see.
Visit our Privacy Policy to learn more. By continuing to use the site, you agree to this use of cookies and data.
  • In Deutschland
  • Länderverzeichnis
  • Für 7 Tage
  • Wassertemperatur
  • Satellitenkarten
  • Wetterkarte
  • Widgets
  • user-avatar
    Anmelden

    Stündliche Wetter Krasilnikov

    Heute, 18 November, Sonntag

    Zeit Temperatur Niederschläge Wind Luftdruck Luftfeuchtigkeit
    00:00 -5°C° 0 mm 2 m/S 759 mmHg 77%
    01:00 -5°C° 0 mm 2 m/S 759 mmHg 77%
    02:00 -6°C° 0 mm 2 m/S 759 mmHg 77%
    03:00 -6°C° 0 mm 2 m/S 758 mmHg 77%
    04:00 -6°C° 0 mm 2 m/S 758 mmHg 78%
    05:00 -6°C° 0 mm 2 m/S 758 mmHg 78%
    06:00 -5°C° 0 mm 2 m/S 758 mmHg 79%
    07:00 -3°C° 0 mm 1 m/S 757 mmHg 78%
    08:00 -3°C° 0 mm 1 m/S 757 mmHg 78%
    09:00 -3°C° 0 mm 1 m/S 757 mmHg 78%
    10:00 -2°C° 0 mm 1 m/S 757 mmHg 77%
    11:00 -1°C° 0 mm 1 m/S 757 mmHg 76%
    12:00 0°C° 0 mm 1 m/S 757 mmHg 74%
    13:00 0°C° 0 mm 1 m/S 757 mmHg 76%
    14:00 +1°C° 0 mm 1 m/S 757 mmHg 79%
    15:00 +1°C° 0 mm 1 m/S 756 mmHg 81%
    16:00 0°C° 0 mm 1 m/S 756 mmHg 83%
    17:00 -1°C° 0 mm 1 m/S 756 mmHg 85%
    18:00 -2°C° 0 mm 1 m/S 756 mmHg 87%
    19:00 -2°C° 0 mm 1 m/S 756 mmHg 88%
    20:00 -2°C° 0 mm 1 m/S 756 mmHg 89%
    21:00 -2°C° 0 mm 1 m/S 756 mmHg 90%
    22:00 -2°C° 0 mm 1 m/S 756 mmHg 90%
    23:00 -1°C° 0 mm 1 m/S 756 mmHg 91%

    Morgen, 19 November, Montag

    Zeit Temperatur Niederschläge Wind Luftdruck Luftfeuchtigkeit
    00:00 -1°C° 0 mm 1 m/S 756 mmHg 92%
    01:00 -3°C° 0 mm 2 m/S 756 mmHg 93%
    02:00 -3°C° 0 mm 2 m/S 756 mmHg 93%
    03:00 -3°C° 0 mm 2 m/S 756 mmHg 94%
    04:00 -3°C° 0 mm 2 m/S 756 mmHg 94%
    05:00 -3°C° 0 mm 2 m/S 756 mmHg 94%
    06:00 -3°C° 0 mm 2 m/S 756 mmHg 95%
    07:00 -2°C° 0 mm 3 m/S 756 mmHg 95%
    08:00 -2°C° 0 mm 3 m/S 756 mmHg 95%
    09:00 -2°C° 0 mm 3 m/S 756 mmHg 95%
    10:00 -1°C° 0 mm 3 m/S 756 mmHg 95%
    11:00 -2°C° 0 mm 4 m/S 755 mmHg 96%
    12:00 -1°C° 0 mm 4 m/S 755 mmHg 97%
    13:00 -1°C° 0 mm 4 m/S 755 mmHg 97%
    14:00 -1°C° 0 mm 4 m/S 755 mmHg 97%
    15:00 -1°C° 0 mm 4 m/S 755 mmHg 97%
    16:00 -1°C° 0 mm 4 m/S 754 mmHg 97%
    17:00 -1°C° 0 mm 4 m/S 754 mmHg 97%
    18:00 -1°C° 0 mm 5 m/S 754 mmHg 96%
    19:00 -1°C° 0.2 mm 5 m/S 754 mmHg 96%
    20:00 0°C° 0.2 mm 5 m/S 754 mmHg 95%
    21:00 0°C° 0.2 mm 5 m/S 753 mmHg 94%
    22:00 0°C° 0.5 mm 5 m/S 753 mmHg 95%
    23:00 0°C° 0.5 mm 5 m/S 753 mmHg 95%

    übermorgen, 20 November, Dienstag

    Zeit Temperatur Niederschläge Wind Luftdruck Luftfeuchtigkeit
    00:00 0°C° 0.5 mm 5 m/S 753 mmHg 95%
    01:00 -1°C° 0.3 mm 6 m/S 753 mmHg 95%
    02:00 -1°C° 0.3 mm 6 m/S 752 mmHg 96%
    03:00 -1°C° 0.3 mm 6 m/S 752 mmHg 96%
    04:00 -1°C° 1.3 mm 6 m/S 751 mmHg 96%
    05:00 -1°C° 1.3 mm 6 m/S 751 mmHg 96%
    06:00 -1°C° 1.3 mm 6 m/S 751 mmHg 95%
    07:00 -1°C° 0.7 mm 6 m/S 750 mmHg 95%
    08:00 -1°C° 0.7 mm 7 m/S 750 mmHg 95%
    09:00 -1°C° 0.7 mm 7 m/S 750 mmHg 95%
    10:00 +1°C° 0.3 mm 6 m/S 750 mmHg 96%
    11:00 +1°C° 0.3 mm 6 m/S 750 mmHg 96%
    12:00 +1°C° 0.3 mm 5 m/S 750 mmHg 97%
    13:00 +3°C° 0.4 mm 4 m/S 749 mmHg 96%
    14:00 +3°C° 0.4 mm 4 m/S 749 mmHg 96%
    15:00 +3°C° 0.4 mm 3 m/S 749 mmHg 95%
    16:00 +3°C° 0.8 mm 3 m/S 749 mmHg 95%
    17:00 +3°C° 0.8 mm 3 m/S 749 mmHg 96%
    18:00 +3°C° 0.8 mm 3 m/S 749 mmHg 96%
    19:00 +3°C° 0.2 mm 4 m/S 749 mmHg 96%
    20:00 +3°C° 0.2 mm 4 m/S 749 mmHg 96%
    21:00 +1°C° 0.2 mm 4 m/S 750 mmHg 96%
    22:00 +1°C° 0 mm 4 m/S 750 mmHg 96%
    23:00 +1°C° 0 mm 4 m/S 750 mmHg 95%

    21 November, Mittwoch

    Zeit Temperatur Niederschläge Wind Luftdruck Luftfeuchtigkeit
    00:00 0°C° 0 mm 4 m/S 750 mmHg 95%
    01:00 0°C° 0 mm 4 m/S 751 mmHg 94%
    02:00 0°C° 0 mm 4 m/S 751 mmHg 94%
    03:00 +1°C° 0 mm 3 m/S 751 mmHg 93%
    04:00 +1°C° 0 mm 3 m/S 751 mmHg 93%
    05:00 0°C° 0 mm 3 m/S 752 mmHg 93%
    06:00 0°C° 0 mm 3 m/S 752 mmHg 93%
    07:00 0°C° 0 mm 3 m/S 752 mmHg 92%
    08:00 0°C° 0 mm 3 m/S 752 mmHg 91%
    09:00 0°C° 0 mm 3 m/S 753 mmHg 91%
    10:00 0°C° 0 mm 3 m/S 753 mmHg 89%
    11:00 +1°C° 0 mm 3 m/S 753 mmHg 88%
    12:00 +1°C° 0 mm 3 m/S 753 mmHg 87%
    13:00 +1°C° 0 mm 3 m/S 753 mmHg 87%
    14:00 +1°C° 0 mm 3 m/S 752 mmHg 86%
    15:00 +1°C° 0 mm 3 m/S 752 mmHg 86%
    16:00 0°C° 0 mm 4 m/S 752 mmHg 87%
    17:00 0°C° 0 mm 4 m/S 752 mmHg 87%
    18:00 -1°C° 0 mm 4 m/S 752 mmHg 87%
    19:00 -1°C° 0 mm 4 m/S 752 mmHg 87%
    20:00 -1°C° 0 mm 4 m/S 753 mmHg 86%
    21:00 -1°C° 0 mm 4 m/S 753 mmHg 85%
    22:00 -1°C° 0 mm 4 m/S 753 mmHg 84%
    23:00 -1°C° 0 mm 4 m/S 753 mmHg 83%

    22 November, Donnerstag

    Zeit Temperatur Niederschläge Wind Luftdruck Luftfeuchtigkeit
    00:00 -1°C° 0 mm 4 m/S 753 mmHg 82%
    01:00 -1°C° 0 mm 4 m/S 753 mmHg 81%
    02:00 -2°C° 0 mm 4 m/S 752 mmHg 80%
    03:00 -2°C° 0 mm 4 m/S 752 mmHg 79%
    04:00 -2°C° 0 mm 4 m/S 752 mmHg 79%
    05:00 -3°C° 0 mm 4 m/S 753 mmHg 79%
    06:00 -3°C° 0 mm 4 m/S 753 mmHg 79%
    07:00 -4°C° 0 mm 5 m/S 753 mmHg 78%
    08:00 -4°C° 0 mm 5 m/S 753 mmHg 78%
    09:00 -4°C° 0 mm 5 m/S 753 mmHg 78%
    10:00 -4°C° 0 mm 5 m/S 753 mmHg 75%
    11:00 -2°C° 0 mm 5 m/S 753 mmHg 73%
    12:00 -1°C° 0 mm 5 m/S 753 mmHg 71%
    13:00 -1°C° 0 mm 5 m/S 753 mmHg 71%
    14:00 -1°C° 0 mm 4 m/S 753 mmHg 71%
    15:00 -1°C° 0 mm 4 m/S 753 mmHg 71%
    16:00 -2°C° 0 mm 4 m/S 753 mmHg 74%
    17:00 -3°C° 0 mm 4 m/S 754 mmHg 77%
    18:00 -4°C° 0 mm 4 m/S 754 mmHg 81%
    19:00 -4°C° 0 mm 4 m/S 754 mmHg 81%
    20:00 -4°C° 0 mm 4 m/S 754 mmHg 82%
    21:00 -5°C° 0 mm 4 m/S 755 mmHg 82%
    22:00 -5°C° 0 mm 4 m/S 755 mmHg 82%
    23:00 -5°C° 0 mm 3 m/S 755 mmHg 81%

    23 November, Freitag

    Zeit Temperatur Niederschläge Wind Luftdruck Luftfeuchtigkeit
    00:00 -5°C° 0 mm 3 m/S 755 mmHg 81%
    01:00 -5°C° 0 mm 3 m/S 755 mmHg 80%
    02:00 -5°C° 0 mm 3 m/S 755 mmHg 79%
    03:00 -5°C° 0 mm 3 m/S 755 mmHg 79%
    04:00 -5°C° 0 mm 3 m/S 755 mmHg 78%
    05:00 -5°C° 0 mm 3 m/S 756 mmHg 77%
    06:00 -5°C° 0 mm 3 m/S 756 mmHg 77%
    07:00 -5°C° 0 mm 3 m/S 756 mmHg 77%
    08:00 -5°C° 0 mm 3 m/S 757 mmHg 76%
    09:00 -5°C° 0 mm 3 m/S 757 mmHg 76%
    10:00 -4°C° 0 mm 3 m/S 757 mmHg 73%
    11:00 -2°C° 0 mm 3 m/S 757 mmHg 71%
    12:00 -1°C° 0 mm 3 m/S 757 mmHg 69%
    13:00 -1°C° 0 mm 3 m/S 757 mmHg 70%
    14:00 -1°C° 0 mm 3 m/S 757 mmHg 71%
    15:00 -1°C° 0 mm 3 m/S 757 mmHg 71%
    16:00 -2°C° 0 mm 3 m/S 758 mmHg 76%
    17:00 -2°C° 0 mm 3 m/S 758 mmHg 81%
    18:00 -4°C° 0 mm 3 m/S 758 mmHg 85%
    19:00 -4°C° 0 mm 3 m/S 758 mmHg 86%
    20:00 -5°C° 0 mm 3 m/S 759 mmHg 86%
    21:00 -4°C° 0 mm 2 m/S 759 mmHg 87%
    22:00 -4°C° 0 mm 2 m/S 759 mmHg 87%
    23:00 -4°C° 0 mm 2 m/S 759 mmHg 87%
    Mehr zeigen